DAH6100 DAAG-DAOO

Flight info

Callsign DAH6100
Flight time N/A
Altitude 26000
Route ALR DCT CELBA DCT CHE UA411 MOS DCT ORA
Aircraft B738/M-SDE2E3FGHIRWXY/LB1

Departure

Time N/A
Airport Houari Boumediene Airport (DAAG)

Arrival

Time 2026-04-28 21:23
Airport Oran Es-Sénia (Ahmed Ben Bella) International Airport (DAOO)
Time Latitude Longitude Altitude Speed Heading
2026-04-28 19:44 36.93597 2.64177 26174 ft 438 kts 229°
2026-04-28 19:44 36.91542 2.61408 26170 ft 434 kts 229°
2026-04-28 19:44 36.89498 2.58653 26171 ft 431 kts 229°
2026-04-28 19:44 36.87454 2.55903 26174 ft 430 kts 229°
2026-04-28 19:45 36.85426 2.53172 26175 ft 431 kts 229°
2026-04-28 19:45 36.83373 2.50414 26176 ft 431 kts 229°
2026-04-28 19:45 36.81344 2.47688 26176 ft 431 kts 229°
2026-04-28 19:45 36.79316 2.44966 26175 ft 431 kts 229°
2026-04-28 19:46 36.77277 2.42232 26175 ft 431 kts 229°
2026-04-28 19:46 36.75237 2.39498 26176 ft 431 kts 229°
2026-04-28 19:46 36.73189 2.36757 26176 ft 431 kts 229°
2026-04-28 19:46 36.71141 2.34017 26180 ft 431 kts 228°
2026-04-28 19:47 36.69094 2.31280 26183 ft 432 kts 228°
2026-04-28 19:47 36.67057 2.28561 26184 ft 431 kts 228°
2026-04-28 19:47 36.65013 2.25835 26185 ft 431 kts 228°
2026-04-28 19:47 36.62971 2.23114 26191 ft 431 kts 228°
2026-04-28 19:48 36.60937 2.20389 26191 ft 430 kts 230°
2026-04-28 19:48 36.59338 2.17267 26178 ft 428 kts 248°
2026-04-28 19:48 36.58248 2.13858 26211 ft 428 kts 248°
2026-04-28 19:48 36.57108 2.10399 26197 ft 429 kts 248°
2026-04-28 19:49 36.55969 2.06996 26199 ft 428 kts 248°
2026-04-28 19:49 36.54821 2.03591 26198 ft 428 kts 248°
2026-04-28 19:49 36.53660 2.00158 26198 ft 428 kts 248°
2026-04-28 19:49 36.52510 1.96765 26198 ft 429 kts 248°
2026-04-28 19:50 36.50189 1.89930 26195 ft 429 kts 248°
2026-04-28 19:50 36.49042 1.86555 26194 ft 429 kts 248°
2026-04-28 19:50 36.47879 1.83144 26199 ft 429 kts 248°
2026-04-28 19:51 36.46716 1.79731 26200 ft 429 kts 248°
2026-04-28 19:51 36.45547 1.76309 26197 ft 429 kts 248°
2026-04-28 19:51 36.44383 1.72900 26189 ft 429 kts 248°
2026-04-28 19:51 36.43210 1.69472 26184 ft 429 kts 248°
2026-04-28 19:52 36.42041 1.66060 26177 ft 429 kts 248°
2026-04-28 19:52 36.40878 1.62669 26180 ft 429 kts 248°
2026-04-28 19:52 36.39705 1.59253 26175 ft 429 kts 248°
2026-04-28 19:52 36.38549 1.55886 26167 ft 429 kts 247°
2026-04-28 19:53 36.37399 1.52546 26150 ft 409 kts 248°
2026-04-28 19:53 36.36308 1.49364 26164 ft 395 kts 248°
2026-04-28 19:53 36.35231 1.46144 26201 ft 414 kts 248°
2026-04-28 19:53 36.34101 1.42767 26197 ft 434 kts 248°
2026-04-28 19:54 36.32937 1.39298 26180 ft 437 kts 248°
2026-04-28 19:54 36.31782 1.35862 26175 ft 432 kts 248°
2026-04-28 19:54 36.30647 1.32487 26161 ft 414 kts 247°
2026-04-28 19:54 36.29557 1.29249 26150 ft 395 kts 247°
2026-04-28 19:55 36.28502 1.26119 26179 ft 395 kts 247°
2026-04-28 19:55 36.27433 1.22950 26161 ft 401 kts 247°
2026-04-28 19:55 36.26364 1.19786 25457 ft 400 kts 247°
2026-04-28 19:55 36.25290 1.16605 24284 ft 406 kts 247°
2026-04-28 19:56 36.24206 1.13404 23655 ft 399 kts 247°
2026-04-28 19:56 36.23152 1.10292 23086 ft 391 kts 247°
2026-04-28 19:56 36.22100 1.07193 22574 ft 382 kts 247°
2026-04-28 19:56 36.21088 1.04211 22099 ft 373 kts 247°
2026-04-28 19:57 36.20096 1.01291 21670 ft 365 kts 247°
2026-04-28 19:57 36.19126 0.98439 21243 ft 356 kts 247°
2026-04-28 19:57 36.18168 0.95625 20827 ft 348 kts 247°
2026-04-28 19:57 36.17242 0.92909 20447 ft 340 kts 247°
2026-04-28 19:58 36.16335 0.90248 20070 ft 332 kts 247°
2026-04-28 19:58 36.15442 0.87632 19702 ft 325 kts 247°
2026-04-28 19:58 36.14578 0.85104 19339 ft 318 kts 247°
2026-04-28 19:58 36.13724 0.82606 18987 ft 312 kts 247°
2026-04-28 19:59 36.12883 0.80148 18662 ft 305 kts 247°
2026-04-28 19:59 36.12061 0.77753 18322 ft 300 kts 247°
2026-04-28 19:59 36.11255 0.75401 17999 ft 294 kts 247°
2026-04-28 19:59 36.10466 0.73100 17683 ft 289 kts 247°
2026-04-28 20:00 36.09680 0.70809 17349 ft 284 kts 247°
2026-04-28 20:00 36.09302 0.69708 17181 ft 281 kts 247°
2026-04-28 21:05 36.08811 0.68278 16989 ft 278 kts 247°
2026-04-28 21:06 36.08053 0.66073 16693 ft 274 kts 247°
2026-04-28 21:06 36.07313 0.63923 16376 ft 270 kts 247°
2026-04-28 21:06 36.06581 0.61797 16058 ft 266 kts 247°
2026-04-28 21:06 36.05861 0.59706 15772 ft 262 kts 247°
2026-04-28 21:07 36.05155 0.57660 15472 ft 258 kts 247°
2026-04-28 21:07 36.04458 0.55638 15190 ft 254 kts 247°
2026-04-28 21:07 36.03769 0.53645 14907 ft 250 kts 247°
2026-04-28 21:07 36.03091 0.51682 14653 ft 246 kts 247°
2026-04-28 21:08 36.02419 0.49736 14379 ft 243 kts 247°
2026-04-28 21:08 36.01767 0.47850 14074 ft 239 kts 247°
2026-04-28 21:08 36.01112 0.45959 13808 ft 235 kts 247°
2026-04-28 21:08 36.00475 0.44117 13576 ft 232 kts 246°
2026-04-28 21:09 35.99839 0.42282 13316 ft 228 kts 246°
2026-04-28 21:09 35.99213 0.40477 13052 ft 240 kts 246°
2026-04-28 21:09 35.98497 0.38418 12917 ft 286 kts 246°
2026-04-28 21:09 35.97646 0.35968 12677 ft 332 kts 246°
2026-04-28 21:10 35.96716 0.33294 12366 ft 338 kts 246°
2026-04-28 21:10 35.95771 0.30573 11978 ft 341 kts 246°
2026-04-28 21:10 35.94845 0.27910 11474 ft 335 kts 246°
2026-04-28 21:10 35.93932 0.25292 11021 ft 329 kts 246°
2026-04-28 21:11 35.93038 0.22726 10631 ft 322 kts 246°
2026-04-28 21:11 35.92168 0.20232 10482 ft 306 kts 246°
2026-04-28 21:11 35.91342 0.17868 10359 ft 292 kts 246°
2026-04-28 21:11 35.90555 0.15615 10250 ft 279 kts 246°
2026-04-28 21:12 35.89760 0.13488 10135 ft 277 kts 236°
2026-04-28 21:12 35.88511 0.11611 10190 ft 284 kts 231°
2026-04-28 21:12 35.87315 0.09711 10129 ft 276 kts 232°
2026-04-28 21:12 35.86182 0.07820 10132 ft 273 kts 233°
2026-04-28 21:13 35.85174 0.05862 10140 ft 273 kts 246°
2026-04-28 21:13 35.84427 0.03714 10116 ft 274 kts 245°
2026-04-28 21:13 35.83673 0.01534 10150 ft 271 kts 246°
2026-04-28 21:13 35.82939 -0.00618 9834 ft 274 kts 246°
2026-04-28 21:14 35.82212 -0.02766 9468 ft 271 kts 246°
2026-04-28 21:14 35.81491 -0.04904 9087 ft 269 kts 246°
2026-04-28 21:14 35.80781 -0.07019 8694 ft 267 kts 246°
2026-04-28 21:14 35.80076 -0.09125 8360 ft 266 kts 246°
2026-04-28 21:15 35.79373 -0.11216 8024 ft 264 kts 246°
2026-04-28 21:15 35.78675 -0.13290 7654 ft 263 kts 246°
2026-04-28 21:15 35.77972 -0.15379 7275 ft 261 kts 246°
2026-04-28 21:15 35.77287 -0.17412 6917 ft 260 kts 246°
2026-04-28 21:16 35.76588 -0.19485 6541 ft 259 kts 246°
2026-04-28 21:16 35.75901 -0.21522 6223 ft 258 kts 246°
2026-04-28 21:16 35.75214 -0.23556 5877 ft 257 kts 246°
2026-04-28 21:16 35.74532 -0.25573 5515 ft 256 kts 246°
2026-04-28 21:17 35.73853 -0.27579 5182 ft 254 kts 246°
2026-04-28 21:17 35.73195 -0.29527 5128 ft 240 kts 246°
2026-04-28 21:17 35.72566 -0.31385 5123 ft 225 kts 246°
2026-04-28 21:17 35.71984 -0.33103 5114 ft 211 kts 246°
2026-04-28 21:18 35.71430 -0.34740 5127 ft 210 kts 245°
2026-04-28 21:18 35.70895 -0.36314 5134 ft 215 kts 245°
2026-04-28 21:18 35.70412 -0.37726 5151 ft 214 kts 245°
2026-04-28 21:19 35.69835 -0.39380 5049 ft 213 kts 245°
2026-04-28 21:19 35.69246 -0.41046 4543 ft 211 kts 245°
2026-04-28 21:19 35.68971 -0.41828 4444 ft 201 kts 245°
2026-04-28 21:19 35.68544 -0.43071 4289 ft 182 kts 244°
2026-04-28 21:20 35.68099 -0.44422 3848 ft 170 kts 245°
2026-04-28 21:20 35.67673 -0.45767 3220 ft 168 kts 246°
2026-04-28 21:20 35.67273 -0.47078 2722 ft 161 kts 247°
2026-04-28 21:20 35.66882 -0.48379 2106 ft 165 kts 248°
2026-04-28 21:21 35.66486 -0.49669 1604 ft 161 kts 249°
2026-04-28 21:21 35.66051 -0.50929 1326 ft 161 kts 245°
2026-04-28 21:21 35.65540 -0.52179 1312 ft 162 kts 243°
2026-04-28 21:21 35.64994 -0.53412 1267 ft 170 kts 242°
2026-04-28 21:22 35.64481 -0.54716 1178 ft 171 kts 250°
2026-04-28 21:22 35.64091 -0.56105 1092 ft 169 kts 252°
2026-04-28 21:22 35.63687 -0.57444 907 ft 165 kts 249°
2026-04-28 21:22 35.63224 -0.58723 674 ft 163 kts 248°
2026-04-28 21:23 35.62774 -0.59990 487 ft 160 kts 252°
2026-04-28 21:23 35.62396 -0.61235 305 ft 149 kts 251°
2026-04-28 21:23 35.62022 -0.62295 293 ft 108 kts 251°
2026-04-28 21:23 35.61902 -0.62649 293 ft 0 kts 250°
2026-04-28 21:24 35.61855 -0.62687 293 ft 0 kts 223°
2026-04-28 21:24 35.61756 -0.62801 294 ft 32 kts 226°
2026-04-28 21:24 35.61533 -0.63015 293 ft 45 kts 220°
2026-04-28 21:25 35.61364 -0.63367 295 ft 53 kts 248°
2026-04-28 21:25 35.61219 -0.63794 293 ft 53 kts 256°
2026-04-28 21:25 35.61419 -0.64017 292 ft 42 kts 32°
2026-04-28 21:25 35.61529 -0.63731 295 ft 35 kts 62°
2026-04-28 21:26 35.61532 -0.63480 295 ft 30 kts 156°
2026-04-28 21:26 35.61411 -0.63306 295 ft 27 kts 88°
2026-04-28 21:26 35.61468 -0.63095 294 ft 25 kts 66°
2026-04-28 21:26 35.61527 -0.62895 293 ft 24 kts 69°
2026-04-28 21:27 35.61591 -0.62711 292 ft 23 kts 68°
2026-04-28 21:27 35.61650 -0.62531 292 ft 21 kts 67°
2026-04-28 21:27 35.61715 -0.62363 290 ft 21 kts 63°
2026-04-28 21:27 35.61725 -0.62238 290 ft 13 kts 181°
2026-04-28 21:28 35.61691 -0.62239 290 ft 0 kts 150°